Location: Trebic
(49.2170°N, 15.8830°E)
Time: 13:39:17
(UTC+02:00)

OTV 5 (USA 277) - Visible Passes

Search period start: 17 June 2019 00:00
Search period end: 27 June 2019 00:00
Orbit: 310 x 325 km, 54.5° (Epoch: 08 May)

Date Brightness Start Highest point End Pass type
(mag) Time Alt. Az. Time Alt. Az. Time Alt. Az.
17 Jun ? 00:24:06 15° E 00:24:06 15° E 00:24:49 10° ENE visible
17 Jun ? 01:54:57 19° W 01:56:37 46° NNW 01:59:18 10° NE visible
17 Jun ? 03:28:59 10° WNW 03:31:22 25° N 03:33:46 10° ENE visible
18 Jun ? 00:37:29 51° E 00:37:29 51° E 00:39:45 10° ENE visible
18 Jun ? 02:08:58 10° WNW 02:11:30 31° NNW 02:14:02 10° NE visible
18 Jun ? 03:43:53 10° NW 03:46:20 27° N 03:48:46 10° ENE visible
19 Jun ? 00:50:36 29° W 00:51:45 61° NNW 00:54:30 10° ENE visible
19 Jun ? 02:24:02 10° WNW 02:26:26 26° N 02:28:51 10° NE visible
19 Jun ? 03:58:39 10° NW 04:01:15 35° NNE 04:03:50 10° E visible
19 Jun ? 23:32:23 42° SE 23:32:23 42° SE 23:34:52 10° ENE visible
20 Jun ? 01:03:59 10° W 01:06:36 36° NNW 01:09:13 10° NE visible
20 Jun ? 02:39:00 10° WNW 02:41:24 26° N 02:43:48 10° ENE visible
20 Jun ? 22:12:21 13° SSE 22:12:57 14° SE 22:14:26 10° E visible
20 Jun ? 23:44:09 10° WSW 23:46:55 85° NNW 23:49:41 10° ENE visible
21 Jun ? 01:19:03 10° WNW 01:21:31 28° N 01:23:59 10° NE visible
21 Jun ? 02:53:50 10° NW 02:56:21 30° NNE 02:58:51 10° ENE visible
21 Jun ? 22:25:01 10° SSW 22:27:28 29° SE 22:29:56 10° ENE visible
21 Jun ? 23:59:02 10° W 00:01:43 45° NNW 00:04:24 10° NE visible
22 Jun ? 01:34:05 10° WNW 01:36:28 25° N 01:38:52 10° ENE visible
22 Jun ? 03:08:33 10° NW 03:11:14 44° NNE 03:13:54 10° E visible
22 Jun ? 22:39:21 10° SW 22:42:05 66° SSE 22:44:51 10° ENE visible
23 Jun ? 00:14:04 10° WNW 00:16:36 31° NNW 00:19:08 10° NE visible
23 Jun ? 01:48:58 10° NW 01:51:26 27° N 01:53:53 10° ENE visible
23 Jun ? 03:23:17 10° WNW 03:26:03 82° NNE 03:28:48 10° ESE visible
23 Jun ? 22:54:06 10° WSW 22:56:51 60° NNW 22:59:36 10° ENE visible
24 Jun ? 00:29:08 10° WNW 00:31:32 26° N 00:33:57 10° NE visible
24 Jun ? 02:03:45 10° NW 02:06:21 36° NNE 02:08:57 10° E visible
24 Jun ? 03:38:05 10° WNW 03:40:45 45° SW 03:43:24 10° SE visible
24 Jun ? 23:09:05 10° W 23:11:42 36° NNW 23:14:19 10° NE visible
25 Jun ? 00:44:05 10° WNW 00:46:30 26° N 00:48:55 10° ENE visible
25 Jun ? 02:18:28 10° WNW 02:21:12 59° NNE 02:23:56 10° ESE visible
25 Jun ? 03:53:11 10° W 03:55:19 20° SW 03:57:28 10° S visible
25 Jun ? 21:49:15 10° WSW 21:52:00 84° NNW 21:54:47 10° ENE visible
25 Jun ? 23:24:09 10° WNW 23:26:37 28° N 23:29:05 10° NE visible
26 Jun ? 00:58:55 10° NW 01:01:27 30° NNE 01:03:58 10° ENE visible
26 Jun ? 02:33:12 10° WNW 02:35:58 68° SSW 02:38:42 10° SE visible
26 Jun ? 22:04:08 10° W 22:06:48 45° NNW 22:09:30 10° NE visible
26 Jun ? 23:39:10 10° WNW 23:41:34 25° N 23:43:58 10° ENE visible
